Regional Weather Roundup
Issued by NWS

Home | Current Version | Previous Version | Text Only | Print | Product List | Glossary On
Versions: 1 2 3 4 5 6 7 8 9 10 11 12 13 14 15 16 17 18 19 20 21 22 23 24 25 26 27 28 29 30 31 32 33 34 35 36 37 38 39 40 41 42 43 44 45 46 47 48
000
ASUS45 KBOI 281510
RWRID
WEATHER ROUNDUP FOR IDAHO
NATIONAL WEATHER SERVICE BOISE ID
800 AM MST SUN DEC 28 2014

NOTE: "FAIR" INDICATES FEW OR NO CLOUDS BELOW 12000 FEET
WITH NO SIGNIFICANT WEATHER AND/OR OBSTRUCTIONS TO VISIBILITY

IDZ012-014-281600-
SOUTHWEST IDAHO


CITY           SKY/WX    TMP DP  RH WIND       PRES   REMARKS
BOISE          CLOUDY    28  26  92 CALM      30.08R
CALDWELL       CLOUDY    27  21  80 SW5       30.12R VSB 1/4 WCI  21
MOUNTAIN HOME  FOG       29  29  97 N2        30.08S VSB<1/4
$$

IDZ016-017-281600-
SOUTHCENTRAL IDAHO


CITY           SKY/WX    TMP DP  RH WIND       PRES   REMARKS
BURLEY         MIX PCPN  29  26  89 W16G24    29.98S WCI  17
JEROME         FOG       28  27  96 W8        30.03R VSB 1/4 WCI  20
TWIN FALLS     CLOUDY    31  25  78 SW21G26   30.02R WCI  18
$$

IDZ019>023-281600-
SOUTHEAST IDAHO


CITY           SKY/WX    TMP DP  RH WIND       PRES   REMARKS
IDAHO FALLS    LGT SNOW  24  21  88 S10       29.94F FOG     WCI  14
POCATELLO      LGT SNOW  28  22  78 S17       29.96S WCI  16
REXBURG        SNOW      20  19  96 N3        29.95S VSB 1/2
$$

IDZ006-010-011-018-031-032-281600-
CENTRAL IDAHO MOUNTAINS


CITY           SKY/WX    TMP DP  RH WIND       PRES   REMARKS
MCCALL         CLOUDY    17  15  92 CALM      29.94S
HAILEY         PTCLDY    12  10  92 NW8       29.96S WCI   1
STANLEY          N/A     15   9  76 S5        29.92S WCI   8
SALMON         MOCLDY    16  12  86 SE3       29.97R
CHALLIS        CLOUDY     9   7  92 NW5       29.94R WCI   1
$$

IDZ002-004-006-007-026-281600-
NORTHERN IDAHO


CITY           SKY/WX    TMP DP  RH WIND       PRES   REMARKS
LEWISTON       CLOUDY    37  31  78 S5        30.02R WCI  33
LOWELL         NOT AVBL
COEUR D`ALENE  CLOUDY    30  28  93 W9        29.96R WCI  22
MULLAN PASS    SNOW      24  20  84 VRB5      29.80R VSB 1/2 WCI  18
$$


USA.gov is the U.S. government's official web portal to all federal, state and local government web resources and services.